CZ-6A DEB, 54639

Orbit data source: Space-Track

CZ-6A DEB, 54639 is space debris in SSO originally from a launch on Fri, 11 Nov 2022 UTC launched from the Taiyaun Space Center, China (TSC). Debris objects in space refer to the collection of defunct objects orbiting the Earth. Examples of debris include non-operational satellites, rocket bodies, and fragments generated from explosions, collisions, or faulty payload assembly.

Loading next visibility...
Identifier
54639, 2022-151PR
Orbit
SSO
Country
Flag of CNCN / PRC
Related business
Manufacturer
SAST
Mission
Spacecraft
Bus & Motor
Unknown
Mass
Unknown
Launch date (UTC)
2022-11-11 (4 years ago)
Launch vehicle
Unknown
Launch site
Taiyaun Space Center, China (TSC)
Object type
Payload
Rocket body
Debris
Shape & HBR
Unknown shape, 0.1 m
Radar Cross Section
Small (<0.1 m²)

Expand to show TLE details & history
Last TLE update: 1 day ago

TLE from 1 day ago
0 CZ-6A DEB
1 54639U 22151PR  26143.98314973  .00000087  00000-0  69340-4 0  9999
2 54639  98.8118 148.6250 0029708  32.9972 327.3047 14.13243851181882
Epoch: 2026-05-23T23:35Z
TLE epoch observation values (Epoch: 2026-05-23T23:35:44.136Z)
Latitude
-0.00002°
Longitude
-86.90072°
Altitude
833.143 km
Speed
7.446 km/s
True Right ascension
09h 54m 30s
True Declination
0° 00' 00"
Sunlit
Object was in daylight at epoch
Visualization orbit readout
Latitude
Unknown
Longitude
Unknown
Altitude
Unknown
Speed
Unknown
Apparent Right ascension
Unknown
Apparent Declination
Unknown
Sunlit
N/A
Visualization observer readout
Local Sidereal Time
09:54:19
Azimuth
Unknown
Elevation
Unknown
Doppler factor
Unknown
Orbital elements
Apogee altitude
866.925 km
Perigee altitude
824.005 km
Semi-major axis
7,223.602 km
Eccentricity
0.00297
Inclination
98.8118°
RAAN
148.625°
Arg. of periapsis
32.9972°
True anomaly
327.12023°
Mean anomaly
327.3047°
Eccentric anomaly
327.21252°
Mean motion
3.53519 °/min
Orbital period
101.83 mins
BSTAR
0.00006934
Loading maneuver chart data...
Computing Atmospheric mass density...

Documentation

Showing up to 5 results
|